Change the Weather History Date:

Thursday, July 3, 2014

  Actual Average Record
Temperature  
Mean Temperature 72 °F 79 °F  
Max Temperature 86 °F 93 °F 103 °F (2011)
Min Temperature 58 °F 64 °F 58 °F (2014)
Degree Days  
Heating Degree Days 0 0  
Month to date heating degree days 0 0  
Since 1 June heating degree days 5 8  
Since 1 July heating degree days 0 0  
Cooling Degree Days 7 14  
Month to date cooling degree days 22 40  
Year to date cooling degree days 549 428  
Since 1 June cooling degree days 371 320  
Growing Degree Days 22 (Base 50)    
Moisture  
Dew Point 60 °F    
Average Humidity 66    
Maximum Humidity 90    
Minimum Humidity 42    
Precipitation  
Precipitation 0.00 in 0.08 in 0.33 in (2006)
Month to date precipitation 0.08 0.24  
Year to date precipitation 5.81 9.43  
Snow  
Snow 0.00 in - - ()
Month to date snowfall 0.0  
Since 1 June snowfall 0.0  
Since 1 July snowfall 0.0  
Snow Depth 0.00 in    
Sea Level Pressure  
Sea Level Pressure 30.09 in    
Wind  
Wind Speed 12 mph (SSE)    
Max Wind Speed 22 mph    
Max Gust Speed 30 mph    
Visibility 10 miles    
Events      
T = Trace of Precipitation, MM = Missing Value Source: NWS Daily Summary

Daily Weather History Graph

Daily Weather History Graph

Search for Another Location

Airport or City:

Trip Planner

Search our weather history database for the weather conditions in past years. The results will help you decide how hot, cold, wet, or windy it might be!

Date:

Astronomy

Jul. 03, 2014 Rise Set
Actual Time 6:31 AM CDT 9:08 PM CDT
Civil Twilight 6:01 AM CDT 9:38 PM CDT
Nautical Twilight 5:23 AM CDT 10:16 PM CDT
Astronomical Twilight 4:41 AM CDT 10:58 PM CDT
Moon 12:23 PM CDT (7/3) 12:11 AM CDT (7/3)
Length of Visible Light 15h 37m
Length of Day
14h 36m
Waxing Crescent, 33% of the Moon is Illuminated
Jul 3
Waxing Crescent
Jul 5
First Quarter
Jul 12
Full
Jul 18
Last Quarter
Jul 26
New

Hourly Weather History & Observations

Time (CDT) Temp. Heat Index Dew Point Humidity Pressure Visibility Wind Dir Wind Speed Gust Speed Precip Events Conditions
12:53 AM 62.1 °F - 57.0 °F 84% 30.16 in 10.0 mi South 4.6 mph - N/A   Partly Cloudy
1:53 AM 62.1 °F - 57.0 °F 84% 30.14 in 10.0 mi SSE 6.9 mph - N/A   Partly Cloudy
2:53 AM 62.1 °F - 57.0 °F 84% 30.13 in 10.0 mi South 5.8 mph - N/A   Clear
3:53 AM 60.1 °F - 57.0 °F 90% 30.12 in 10.0 mi South 3.5 mph - N/A   Partly Cloudy
4:53 AM 60.1 °F - 57.0 °F 90% 30.12 in 10.0 mi South 4.6 mph - N/A   Clear
5:53 AM 59.0 °F - 55.9 °F 90% 30.12 in 10.0 mi SSE 3.5 mph - N/A   Scattered Clouds
6:33 AM 59.0 °F - 55.9 °F 90% 30.22 in 10.0 mi Calm Calm - N/A   Mostly Cloudy
6:43 AM 59.0 °F - 55.9 °F 90% 30.22 in 10.0 mi Calm Calm - N/A   Scattered Clouds
6:53 AM 59.0 °F - 55.9 °F 90% 30.12 in 10.0 mi Calm Calm - N/A   Partly Cloudy
7:53 AM 62.1 °F - 57.9 °F 86% 30.13 in 10.0 mi SSE 4.6 mph - N/A   Overcast
8:21 AM 63.0 °F - 57.9 °F 84% 30.23 in 10.0 mi SSE 6.9 mph - N/A   Overcast
9:22 AM 66.9 °F - 57.9 °F 73% 30.23 in 10.0 mi South 10.4 mph - N/A   Mostly Cloudy
9:53 AM 68.0 °F - 59.0 °F 73% 30.12 in 10.0 mi South 11.5 mph - N/A   Overcast
10:26 AM 71.1 °F - 60.1 °F 68% 30.21 in 10.0 mi South 16.1 mph - N/A   Scattered Clouds
10:53 AM 73.0 °F - 61.0 °F 66% 30.09 in 10.0 mi South 13.8 mph - N/A   Clear
11:53 AM 77.0 °F - 63.0 °F 62% 30.07 in 10.0 mi South 18.4 mph 25.3 mph N/A   Scattered Clouds
12:53 PM 81.0 °F 82.2 °F 63.0 °F 54% 30.06 in 10.0 mi SSE 16.1 mph 26.5 mph N/A   Scattered Clouds
2:53 PM 84.0 °F 84.5 °F 62.1 °F 47% 30.03 in 10.0 mi South 18.4 mph 25.3 mph N/A   Mostly Cloudy
3:53 PM 84.9 °F 85.4 °F 62.1 °F 46% 30.01 in 10.0 mi South 20.7 mph 27.6 mph N/A   Scattered Clouds
4:53 PM 84.0 °F 84.4 °F 61.0 °F 46% 30.00 in 10.0 mi South 20.7 mph 27.6 mph N/A   Clear
5:53 PM 86.0 °F 85.7 °F 60.1 °F 41% 29.97 in 10.0 mi South 15.0 mph 24.2 mph N/A   Partly Cloudy
6:53 PM 84.9 °F 85.9 °F 63.0 °F 48% 29.97 in 10.0 mi SSE 16.1 mph 26.5 mph N/A   Scattered Clouds
7:53 PM 82.0 °F 83.1 °F 63.0 °F 52% 29.97 in 10.0 mi SSE 17.3 mph 23.0 mph N/A   Clear
8:53 PM 78.1 °F - 62.1 °F 58% 30.00 in 10.0 mi SSE 12.7 mph - N/A   Clear
9:53 PM 75.0 °F - 63.0 °F 66% 30.01 in 10.0 mi SSE 11.5 mph - N/A   Clear
10:53 PM 73.0 °F - 64.0 °F 73% 30.02 in 10.0 mi SSE 13.8 mph - N/A   Clear
11:53 PM 72.0 °F - 64.9 °F 78% 30.04 in 10.0 mi SSE 11.5 mph - N/A   Clear